"Sample Date","Sample Time","Sensor Name","Sample Value","Units","Flow Rate","Sample Interval","Sample Volume","Laser Status","Number Channels","Micron Size 0","Counts/Channel 0","Micron Size 1","Counts/Channel 1","Micron Size 2","Counts/Channel 2","Micron Size 3","Counts/Channel 3","Micron Size 4","Counts/Channel 4","Micron Size 5","Counts/Channel 5","Micron Size 6","Counts/Channel 6","Micron Size 7","Counts/Channel 7","Micron Size 8","Counts/Channel 8","Micron Size 9","Counts/Channel 9","Micron Size 10","Counts/Channel 10","Micron Size 11","Counts/Channel 11","Micron Size 12","Counts/Channel 12","Micron Size 13","Counts/Channel 13","Micron Size 14","Counts/Channel 14","Micron Size 15","Counts/Channel 15","Micron Size 16","Counts/Channel 16","Micron Size 17","Counts/Channel 17","Micron Size 18","Counts/Channel 18","Micron Size 19","Counts/Channel 19","Micron Size 20","Counts/Channel 20","Micron Size 21","Counts/Channel 21","Micron Size 22","Counts/Channel 22","Micron Size 23","Counts/Channel 23","Micron Size 24","Counts/Channel 24","Micron Size 25","Counts/Channel 25","Micron Size 26","Counts/Channel 26","Micron Size 27","Counts/Channel 27","Micron Size 28","Counts/Channel 28","Micron Size 29","Counts/Channel 29","Micron Size 30","Counts/Channel 30","Micron Size 31","Counts/Channel 31"
"07/02/06","11:00:03","AMMA06",67413.000,"cc",28320.565,6.00,2832.057,1,6,0.100,36020.000,0.200,24303.000,0.300,4534.000,0.500,1542.000,1.000,1013.000,5.000,1.000
"07/02/06","11:00:09","AMMA06",67439.000,"cc",28297.428,6.00,2829.743,1,6,0.100,36037.000,0.200,24403.000,0.300,4495.000,0.500,1538.000,1.000,966.000,5.000,0
"07/02/06","11:00:15","AMMA06",67630.000,"cc",28342.770,6.00,2834.277,1,6,0.100,35951.000,0.200,24623.000,0.300,4437.000,0.500,1554.000,1.000,1065.000,5.000,0
"07/02/06","11:00:21","AMMA06",67762.000,"cc",28326.088,6.00,2832.609,1,6,0.100,36013.000,0.200,24745.000,0.300,4473.000,0.500,1490.000,1.000,1039.000,5.000,2.000
"07/02/06","11:00:27","AMMA06",67747.000,"cc",28341.033,6.00,2834.104,1,6,0.100,36127.000,0.200,24694.000,0.300,4381.000,0.500,1492.000,1.000,1052.000,5.000,1.000
"07/02/06","11:00:33","AMMA06",68051.000,"cc",28282.783,6.00,2828.279,1,6,0.100,36369.000,0.200,24585.000,0.300,4570.000,0.500,1521.000,1.000,1006.000,5.000,0
"07/02/06","11:00:39","AMMA06",67826.000,"cc",28313.682,6.00,2831.368,1,6,0.100,36042.000,0.200,24724.000,0.300,4588.000,0.500,1489.000,1.000,983.000,5.000,0
"07/02/06","11:00:45","AMMA06",67776.000,"cc",28327.889,6.00,2832.789,1,6,0.100,35848.000,0.200,24789.000,0.300,4652.000,0.500,1484.000,1.000,1002.000,5.000,1.000
"07/02/06","11:00:51","AMMA06",67573.000,"cc",28376.441,6.00,2837.644,1,6,0.100,35802.000,0.200,24668.000,0.300,4526.000,0.500,1555.000,1.000,1019.000,5.000,3.000
"07/02/06","11:00:57","AMMA06",68172.000,"cc",28298.316,6.00,2829.832,1,6,0.100,35838.000,0.200,25058.000,0.300,4755.000,0.500,1498.000,1.000,1023.000,5.000,0
"07/02/06","11:01:03","AMMA06",67900.000,"cc",28266.209,6.00,2826.621,1,6,0.100,35571.000,0.200,25051.000,0.300,4792.000,0.500,1455.000,1.000,1030.000,5.000,1.000
"07/02/06","11:01:09","AMMA06",68264.000,"cc",28284.566,6.00,2828.457,1,6,0.100,35981.000,0.200,24978.000,0.300,4763.000,0.500,1552.000,1.000,988.000,5.000,2.000
"07/02/06","11:01:15","AMMA06",68862.000,"cc",28372.895,6.00,2837.290,1,6,0.100,36385.000,0.200,25314.000,0.300,4685.000,0.500,1476.000,1.000,1000.000,5.000,2.000
"07/02/06","11:01:21","AMMA06",68338.000,"cc",28355.428,6.00,2835.543,1,6,0.100,35819.000,0.200,25383.000,0.300,4632.000,0.500,1479.000,1.000,1024.000,5.000,1.000
"07/02/06","11:01:27","AMMA06",67891.000,"cc",28305.740,6.00,2830.574,1,6,0.100,35591.000,0.200,25160.000,0.300,4683.000,0.500,1481.000,1.000,975.000,5.000,1.000
"07/02/06","11:01:33","AMMA06",68400.000,"cc",28354.498,6.00,2835.450,1,6,0.100,35848.000,0.200,25450.000,0.300,4635.000,0.500,1481.000,1.000,986.000,5.000,0
"07/02/06","11:01:39","AMMA06",68251.000,"cc",28263.348,6.00,2826.335,1,6,0.100,35672.000,0.200,25412.000,0.300,4687.000,0.500,1475.000,1.000,1004.000,5.000,1.000
"07/02/06","11:01:45","AMMA06",69001.000,"cc",28290.965,6.00,2829.097,1,6,0.100,36462.000,0.200,25307.000,0.300,4680.000,0.500,1519.000,1.000,1033.000,5.000,0
"07/02/06","11:01:51","AMMA06",68869.000,"cc",28308.336,6.00,2830.834,1,6,0.100,35980.000,0.200,25539.000,0.300,4783.000,0.500,1552.000,1.000,1015.000,5.000,0
"07/02/06","11:01:57","AMMA06",69144.000,"cc",28327.586,6.00,2832.759,1,6,0.100,36322.000,0.200,25493.000,0.300,4843.000,0.500,1509.000,1.000,976.000,5.000,1.000
"07/02/06","11:02:03","AMMA06",69216.000,"cc",28319.547,6.00,2831.955,1,6,0.100,36391.000,0.200,25499.000,0.300,4787.000,0.500,1525.000,1.000,1013.000,5.000,1.000
"07/02/06","11:02:09","AMMA06",69147.000,"cc",28350.512,6.00,2835.051,1,6,0.100,36162.000,0.200,25542.000,0.300,4841.000,0.500,1578.000,1.000,1024.000,5.000,0
"07/02/06","11:02:15","AMMA06",68682.000,"cc",28289.225,6.00,2828.923,1,6,0.100,36275.000,0.200,25177.000,0.300,4688.000,0.500,1478.000,1.000,1063.000,5.000,1.000
"07/02/06","11:02:21","AMMA06",68712.000,"cc",28282.553,6.00,2828.255,1,6,0.100,36119.000,0.200,25310.000,0.300,4789.000,0.500,1458.000,1.000,1035.000,5.000,1.000
"07/02/06","11:02:27","AMMA06",68833.000,"cc",28343.875,6.00,2834.388,1,6,0.100,36391.000,0.200,25181.000,0.300,4787.000,0.500,1451.000,1.000,1023.000,5.000,0
"07/02/06","11:02:33","AMMA06",68781.000,"cc",28357.664,6.00,2835.767,1,6,0.100,36074.000,0.200,25449.000,0.300,4686.000,0.500,1514.000,1.000,1058.000,5.000,0
"07/02/06","11:02:39","AMMA06",68385.000,"cc",28298.309,6.00,2829.831,1,6,0.100,36087.000,0.200,25155.000,0.300,4603.000,0.500,1519.000,1.000,1020.000,5.000,1.000
"07/02/06","11:02:45","AMMA06",68532.000,"cc",28286.619,6.00,2828.662,1,6,0.100,36269.000,0.200,24941.000,0.300,4759.000,0.500,1524.000,1.000,1038.000,5.000,1.000
"07/02/06","11:02:51","AMMA06",68866.000,"cc",28320.955,6.00,2832.096,1,6,0.100,36186.000,0.200,25507.000,0.300,4666.000,0.500,1513.000,1.000,994.000,5.000,0
"07/02/06","11:02:57","AMMA06",68712.000,"cc",28320.609,6.00,2832.061,1,6,0.100,36212.000,0.200,25354.000,0.300,4625.000,0.500,1482.000,1.000,1039.000,5.000,0
"07/02/06","11:03:03","AMMA06",68749.000,"cc",28294.490,6.00,2829.449,1,6,0.100,36362.000,0.200,25098.000,0.300,4705.000,0.500,1510.000,1.000,1074.000,5.000,0
"07/02/06","11:03:09","AMMA06",68756.000,"cc",28257.572,6.00,2825.757,1,6,0.100,36492.000,0.200,25245.000,0.300,4512.000,0.500,1488.000,1.000,1017.000,5.000,2.000
"07/02/06","11:03:15","AMMA06",68800.000,"cc",28342.018,6.00,2834.202,1,6,0.100,36354.000,0.200,25323.000,0.300,4583.000,0.500,1508.000,1.000,1030.000,5.000,2.000
"07/02/06","11:03:21","AMMA06",68525.000,"cc",28352.762,6.00,2835.276,1,6,0.100,36177.000,0.200,25115.000,0.300,4609.000,0.500,1535.000,1.000,1089.000,5.000,0
"07/02/06","11:03:27","AMMA06",68117.000,"cc",28348.793,6.00,2834.879,1,6,0.100,36011.000,0.200,24948.000,0.300,4636.000,0.500,1497.000,1.000,1023.000,5.000,2.000
"07/02/06","11:03:33","AMMA06",68016.000,"cc",28293.670,6.00,2829.367,1,6,0.100,35995.000,0.200,24913.000,0.300,4544.000,0.500,1522.000,1.000,1041.000,5.000,1.000
"07/02/06","11:03:39","AMMA06",68652.000,"cc",28287.674,6.00,2828.768,1,6,0.100,36466.000,0.200,24978.000,0.300,4662.000,0.500,1473.000,1.000,1071.000,5.000,2.000
"07/02/06","11:03:45","AMMA06",68432.000,"cc",28290.981,6.00,2829.098,1,6,0.100,36307.000,0.200,24976.000,0.300,4620.000,0.500,1526.000,1.000,1003.000,5.000,0
"07/02/06","11:03:51","AMMA06",68707.000,"cc",28307.773,6.00,2830.778,1,6,0.100,36662.000,0.200,24938.000,0.300,4543.000,0.500,1578.000,1.000,986.000,5.000,0
"07/02/06","11:03:57","AMMA06",68410.000,"cc",28315.131,6.00,2831.513,1,6,0.100,36249.000,0.200,24991.000,0.300,4531.000,0.500,1587.000,1.000,1052.000,5.000,0
"07/02/06","11:04:03","AMMA06",68394.000,"cc",28340.273,6.00,2834.028,1,6,0.100,36410.000,0.200,24930.000,0.300,4472.000,0.500,1549.000,1.000,1033.000,5.000,0
"07/02/06","11:04:09","AMMA06",68799.000,"cc",28356.471,6.00,2835.647,1,6,0.100,36784.000,0.200,25087.000,0.300,4404.000,0.500,1513.000,1.000,1010.000,5.000,1.000
"07/02/06","11:04:15","AMMA06",68147.000,"cc",28319.238,6.00,2831.924,1,6,0.100,36407.000,0.200,24837.000,0.300,4355.000,0.500,1508.000,1.000,1040.000,5.000,0
"07/02/06","11:04:21","AMMA06",68008.000,"cc",28285.176,6.00,2828.518,1,6,0.100,36462.000,0.200,24571.000,0.300,4486.000,0.500,1532.000,1.000,956.000,5.000,1.000
"07/02/06","11:04:27","AMMA06",68146.000,"cc",28248.201,6.00,2824.820,1,6,0.100,36461.000,0.200,24761.000,0.300,4468.000,0.500,1504.000,1.000,951.000,5.000,1.000
"07/02/06","11:04:33","AMMA06",68992.000,"cc",28373.377,6.00,2837.338,1,6,0.100,37065.000,0.200,24947.000,0.300,4465.000,0.500,1454.000,1.000,1060.000,5.000,1.000
"07/02/06","11:04:39","AMMA06",68646.000,"cc",28347.703,6.00,2834.771,1,6,0.100,36909.000,0.200,24744.000,0.300,4476.000,0.500,1522.000,1.000,995.000,5.000,0
"07/02/06","11:04:45","AMMA06",68556.000,"cc",28328.902,6.00,2832.890,1,6,0.100,36767.000,0.200,24789.000,0.300,4395.000,0.500,1579.000,1.000,1025.000,5.000,1.000
"07/02/06","11:04:51","AMMA06",68284.000,"cc",28302.938,6.00,2830.294,1,6,0.100,36686.000,0.200,24664.000,0.300,4346.000,0.500,1554.000,1.000,1033.000,5.000,1.000
"07/02/06","11:04:57","AMMA06",68517.000,"cc",28316.912,6.00,2831.691,1,6,0.100,36379.000,0.200,24951.000,0.300,4607.000,0.500,1566.000,1.000,1014.000,5.000,0
"07/02/06","11:05:03","AMMA06",68550.000,"cc",28354.008,6.00,2835.401,1,6,0.100,36607.000,0.200,25049.000,0.300,4341.000,0.500,1505.000,1.000,1047.000,5.000,1.000
"07/02/06","11:05:09","AMMA06",68175.000,"cc",28321.248,6.00,2832.125,1,6,0.100,36434.000,0.200,24725.000,0.300,4503.000,0.500,1512.000,1.000,997.000,5.000,4.000
"07/02/06","11:05:15","AMMA06",67600.000,"cc",28302.576,6.00,2830.258,1,6,0.100,36203.000,0.200,24551.000,0.300,4384.000,0.500,1463.000,1.000,997.000,5.000,2.000
"07/02/06","11:05:21","AMMA06",68504.000,"cc",28318.412,6.00,2831.841,1,6,0.100,36888.000,0.200,24879.000,0.300,4319.000,0.500,1477.000,1.000,940.000,5.000,1.000
"07/02/06","11:05:27","AMMA06",68429.000,"cc",28313.783,6.00,2831.378,1,6,0.100,36495.000,0.200,24957.000,0.300,4515.000,0.500,1461.000,1.000,1001.000,5.000,0
"07/02/06","11:05:33","AMMA06",68299.000,"cc",28319.324,6.00,2831.933,1,6,0.100,36605.000,0.200,24822.000,0.300,4450.000,0.500,1430.000,1.000,992.000,5.000,0
"07/02/06","11:05:39","AMMA06",68718.000,"cc",28250.719,6.00,2825.072,1,6,0.100,36841.000,0.200,24952.000,0.300,4462.000,0.500,1473.000,1.000,989.000,5.000,1.000
"07/02/06","11:05:45","AMMA06",68767.000,"cc",28285.772,6.00,2828.577,1,6,0.100,36890.000,0.200,24966.000,0.300,4350.000,0.500,1555.000,1.000,1005.000,5.000,1.000
"07/02/06","11:05:51","AMMA06",69068.000,"cc",28345.342,6.00,2834.534,1,6,0.100,37092.000,0.200,25064.000,0.300,4424.000,0.500,1509.000,1.000,978.000,5.000,1.000
"07/02/06","11:05:57","AMMA06",68436.000,"cc",28318.848,6.00,2831.885,1,6,0.100,36657.000,0.200,24762.000,0.300,4449.000,0.500,1567.000,1.000,1001.000,5.000,0
"07/02/06","11:06:03","AMMA06",68894.000,"cc",28299.652,6.00,2829.965,1,6,0.100,37055.000,0.200,24774.000,0.300,4474.000,0.500,1544.000,1.000,1046.000,5.000,1.000
"07/02/06","11:06:09","AMMA06",68405.000,"cc",28316.150,6.00,2831.615,1,6,0.100,36760.000,0.200,24596.000,0.300,4528.000,0.500,1500.000,1.000,1021.000,5.000,0
"07/02/06","11:06:15","AMMA06",68344.000,"cc",28365.957,6.00,2836.596,1,6,0.100,36563.000,0.200,24821.000,0.300,4452.000,0.500,1546.000,1.000,962.000,5.000,0
"07/02/06","11:06:21","AMMA06",68294.000,"cc",28346.992,6.00,2834.700,1,6,0.100,36595.000,0.200,24780.000,0.300,4408.000,0.500,1557.000,1.000,954.000,5.000,0
"07/02/06","11:06:27","AMMA06",67930.000,"cc",28312.420,6.00,2831.242,1,6,0.100,36494.000,0.200,24725.000,0.300,4344.000,0.500,1397.000,1.000,969.000,5.000,1.000
"07/02/06","11:06:33","AMMA06",68529.000,"cc",28284.721,6.00,2828.472,1,6,0.100,36485.000,0.200,24976.000,0.300,4552.000,0.500,1512.000,1.000,1002.000,5.000,2.000
"07/02/06","11:06:39","AMMA06",68712.000,"cc",28312.820,6.00,2831.282,1,6,0.100,36666.000,0.200,25109.000,0.300,4406.000,0.500,1498.000,1.000,1032.000,5.000,1.000
"07/02/06","11:06:45","AMMA06",68391.000,"cc",28360.836,6.00,2836.084,1,6,0.100,36543.000,0.200,24845.000,0.300,4437.000,0.500,1500.000,1.000,1065.000,5.000,1.000
"07/02/06","11:06:51","AMMA06",68255.000,"cc",28269.783,6.00,2826.979,1,6,0.100,36681.000,0.200,24703.000,0.300,4380.000,0.500,1475.000,1.000,1016.000,5.000,0
"07/02/06","11:06:57","AMMA06",68320.000,"cc",28312.801,6.00,2831.280,1,6,0.100,36589.000,0.200,24739.000,0.300,4416.000,0.500,1548.000,1.000,1028.000,5.000,0
"07/02/06","11:07:03","AMMA06",68634.000,"cc",28289.613,6.00,2828.961,1,6,0.100,36546.000,0.200,25104.000,0.300,4485.000,0.500,1488.000,1.000,1010.000,5.000,1.000
"07/02/06","11:07:09","AMMA06",68789.000,"cc",28346.412,6.00,2834.641,1,6,0.100,36688.000,0.200,24980.000,0.300,4528.000,0.500,1569.000,1.000,1023.000,5.000,1.000
"07/02/06","11:07:15","AMMA06",68602.000,"cc",28327.598,6.00,2832.760,1,6,0.100,36811.000,0.200,24974.000,0.300,4347.000,0.500,1443.000,1.000,1026.000,5.000,1.000
"07/02/06","11:07:21","AMMA06",68399.000,"cc",28327.523,6.00,2832.752,1,6,0.100,36203.000,0.200,25315.000,0.300,4411.000,0.500,1485.000,1.000,985.000,5.000,0
"07/02/06","11:07:27","AMMA06",68950.000,"cc",28308.697,6.00,2830.870,1,6,0.100,36775.000,0.200,25303.000,0.300,4425.000,0.500,1468.000,1.000,978.000,5.000,1.000
"07/02/06","11:07:33","AMMA06",68546.000,"cc",28299.522,6.00,2829.952,1,6,0.100,36743.000,0.200,24786.000,0.300,4462.000,0.500,1585.000,1.000,970.000,5.000,0
"07/02/06","11:07:39","AMMA06",68524.000,"cc",28322.887,6.00,2832.289,1,6,0.100,36467.000,0.200,24882.000,0.300,4577.000,0.500,1550.000,1.000,1048.000,5.000,0
"07/02/06","11:07:45","AMMA06",68280.000,"cc",28317.498,6.00,2831.750,1,6,0.100,36175.000,0.200,24981.000,0.300,4646.000,0.500,1415.000,1.000,1060.000,5.000,3.000
"07/02/06","11:07:51","AMMA06",68605.000,"cc",28306.229,6.00,2830.623,1,6,0.100,36227.000,0.200,25243.000,0.300,4578.000,0.500,1502.000,1.000,1055.000,5.000,0
"07/02/06","11:07:57","AMMA06",68622.000,"cc",28319.315,6.00,2831.932,1,6,0.100,36446.000,0.200,25180.000,0.300,4431.000,0.500,1534.000,1.000,1031.000,5.000,0
"07/02/06","11:08:03","AMMA06",68386.000,"cc",28344.615,6.00,2834.462,1,6,0.100,36265.000,0.200,24996.000,0.300,4600.000,0.500,1545.000,1.000,979.000,5.000,1.000
"07/02/06","11:08:09","AMMA06",68156.000,"cc",28337.633,6.00,2833.763,1,6,0.100,36067.000,0.200,24971.000,0.300,4519.000,0.500,1614.000,1.000,985.000,5.000,0
"07/02/06","11:08:15","AMMA06",68704.000,"cc",28329.432,6.00,2832.943,1,6,0.100,36690.000,0.200,24756.000,0.300,4725.000,0.500,1515.000,1.000,1016.000,5.000,2.000
"07/02/06","11:08:21","AMMA06",68570.000,"cc",28313.637,6.00,2831.364,1,6,0.100,36414.000,0.200,25067.000,0.300,4571.000,0.500,1477.000,1.000,1041.000,5.000,0
"07/02/06","11:08:27","AMMA06",68083.000,"cc",28313.895,6.00,2831.390,1,6,0.100,35928.000,0.200,25078.000,0.300,4550.000,0.500,1518.000,1.000,1009.000,5.000,0
"07/02/06","11:08:33","AMMA06",68387.000,"cc",28290.551,6.00,2829.055,1,6,0.100,36280.000,0.200,24934.000,0.300,4670.000,0.500,1515.000,1.000,986.000,5.000,2.000
"07/02/06","11:08:39","AMMA06",68834.000,"cc",28320.088,6.00,2832.009,1,6,0.100,36265.000,0.200,25364.000,0.300,4744.000,0.500,1470.000,1.000,991.000,5.000,0
"07/02/06","11:08:45","AMMA06",68450.000,"cc",28315.277,6.00,2831.528,1,6,0.100,36225.000,0.200,24924.000,0.300,4728.000,0.500,1513.000,1.000,1059.000,5.000,1.000
"07/02/06","11:08:51","AMMA06",68687.000,"cc",28343.008,6.00,2834.301,1,6,0.100,36455.000,0.200,25260.000,0.300,4533.000,0.500,1456.000,1.000,983.000,5.000,0
"07/02/06","11:08:57","AMMA06",69113.000,"cc",28329.180,6.00,2832.918,1,6,0.100,36533.000,0.200,25456.000,0.300,4686.000,0.500,1508.000,1.000,928.000,5.000,2.000
"07/02/06","11:09:03","AMMA06",68680.000,"cc",28315.473,6.00,2831.547,1,6,0.100,36231.000,0.200,25076.000,0.300,4721.000,0.500,1532.000,1.000,1119.000,5.000,1.000
"07/02/06","11:09:09","AMMA06",68679.000,"cc",28321.434,6.00,2832.144,1,6,0.100,36113.000,0.200,25363.000,0.300,4699.000,0.500,1463.000,1.000,1039.000,5.000,2.000
"07/02/06","11:09:15","AMMA06",69198.000,"cc",28256.647,6.00,2825.665,1,6,0.100,36258.000,0.200,25533.000,0.300,4817.000,0.500,1496.000,1.000,1093.000,5.000,1.000
"07/02/06","11:09:21","AMMA06",69340.000,"cc",28292.342,6.00,2829.234,1,6,0.100,36879.000,0.200,25209.000,0.300,4668.000,0.500,1537.000,1.000,1045.000,5.000,2.000
"07/02/06","11:09:27","AMMA06",68730.000,"cc",28351.432,6.00,2835.143,1,6,0.100,36242.000,0.200,25331.000,0.300,4574.000,0.500,1546.000,1.000,1037.000,5.000,0
"07/02/06","11:09:33","AMMA06",69399.000,"cc",28309.811,6.00,2830.981,1,6,0.100,36609.000,0.200,25539.000,0.300,4674.000,0.500,1513.000,1.000,1064.000,5.000,0
"07/02/06","11:09:39","AMMA06",68946.000,"cc",28311.879,6.00,2831.188,1,6,0.100,36491.000,0.200,25289.000,0.300,4640.000,0.500,1508.000,1.000,1016.000,5.000,2.000
"07/02/06","11:09:45","AMMA06",68707.000,"cc",28337.397,6.00,2833.740,1,6,0.100,36175.000,0.200,25155.000,0.300,4794.000,0.500,1565.000,1.000,1017.000,5.000,1.000
"07/02/06","11:09:51","AMMA06",68875.000,"cc",28308.959,6.00,2830.896,1,6,0.100,36441.000,0.200,25288.000,0.300,4553.000,0.500,1558.000,1.000,1035.000,5.000,0
"07/02/06","11:09:57","AMMA06",69283.000,"cc",28277.461,6.00,2827.746,1,6,0.100,36747.000,0.200,25402.000,0.300,4570.000,0.500,1524.000,1.000,1039.000,5.000,1.000
"07/02/06","11:10:03","AMMA06",68363.000,"cc",28317.820,6.00,2831.782,1,6,0.100,36475.000,0.200,24798.000,0.300,4532.000,0.500,1496.000,1.000,1061.000,5.000,1.000
"07/02/06","11:10:09","AMMA06",69211.000,"cc",28327.254,6.00,2832.726,1,6,0.100,37115.000,0.200,25146.000,0.300,4450.000,0.500,1496.000,1.000,1004.000,5.000,0
"07/02/06","11:10:15","AMMA06",68752.000,"cc",28320.356,6.00,2832.036,1,6,0.100,36803.000,0.200,25015.000,0.300,4467.000,0.500,1480.000,1.000,986.000,5.000,1.000
"07/02/06","11:10:21","AMMA06",68282.000,"cc",28346.299,6.00,2834.630,1,6,0.100,36456.000,0.200,24787.000,0.300,4460.000,0.500,1561.000,1.000,1017.000,5.000,1.000
"07/02/06","11:10:27","AMMA06",69097.000,"cc",28327.926,6.00,2832.793,1,6,0.100,36886.000,0.200,25166.000,0.300,4504.000,0.500,1524.000,1.000,1017.000,5.000,0
"07/02/06","11:10:33","AMMA06",68514.000,"cc",28302.373,6.00,2830.238,1,6,0.100,36690.000,0.200,24793.000,0.300,4414.000,0.500,1548.000,1.000,1067.000,5.000,2.000
"07/02/06","11:10:39","AMMA06",69072.000,"cc",28269.760,6.00,2826.976,1,6,0.100,37028.000,0.200,24726.000,0.300,4679.000,0.500,1620.000,1.000,1019.000,5.000,0
"07/02/06","11:10:45","AMMA06",69043.000,"cc",28358.609,6.00,2835.861,1,6,0.100,37038.000,0.200,24936.000,0.300,4469.000,0.500,1509.000,1.000,1088.000,5.000,3.000
"07/02/06","11:10:51","AMMA06",69348.000,"cc",28292.301,6.00,2829.230,1,6,0.100,37147.000,0.200,25036.000,0.300,4579.000,0.500,1513.000,1.000,1072.000,5.000,1.000
"07/02/06","11:10:57","AMMA06",69097.000,"cc",28316.996,6.00,2831.700,1,6,0.100,37227.000,0.200,24956.000,0.300,4495.000,0.500,1452.000,1.000,966.000,5.000,1.000
"07/02/06","11:11:03","AMMA06",68940.000,"cc",28337.977,6.00,2833.798,1,6,0.100,36771.000,0.200,25048.000,0.300,4538.000,0.500,1554.000,1.000,1029.000,5.000,0
"07/02/06","11:11:09","AMMA06",69050.000,"cc",28314.574,6.00,2831.458,1,6,0.100,37010.000,0.200,25073.000,0.300,4444.000,0.500,1525.000,1.000,998.000,5.000,0
"07/02/06","11:11:15","AMMA06",68928.000,"cc",28287.904,6.00,2828.791,1,6,0.100,36845.000,0.200,24971.000,0.300,4569.000,0.500,1519.000,1.000,1023.000,5.000,1.000
"07/02/06","11:11:21","AMMA06",68426.000,"cc",28305.195,6.00,2830.520,1,6,0.100,36516.000,0.200,24956.000,0.300,4477.000,0.500,1456.000,1.000,1020.000,5.000,1.000
"07/02/06","11:11:27","AMMA06",68695.000,"cc",28313.277,6.00,2831.328,1,6,0.100,36693.000,0.200,25081.000,0.300,4439.000,0.500,1498.000,1.000,983.000,5.000,1.000
"07/02/06","11:11:33","AMMA06",68213.000,"cc",28313.648,6.00,2831.365,1,6,0.100,36246.000,0.200,24908.000,0.300,4543.000,0.500,1513.000,1.000,1002.000,5.000,1.000
"07/02/06","11:11:39","AMMA06",68504.000,"cc",28331.326,6.00,2833.133,1,6,0.100,36401.000,0.200,25056.000,0.300,4504.000,0.500,1544.000,1.000,999.000,5.000,0
"07/02/06","11:11:45","AMMA06",68580.000,"cc",28288.150,6.00,2828.815,1,6,0.100,36809.000,0.200,24933.000,0.300,4290.000,0.500,1532.000,1.000,1016.000,5.000,0
"07/02/06","11:11:51","AMMA06",68548.000,"cc",28341.754,6.00,2834.176,1,6,0.100,36639.000,0.200,24989.000,0.300,4488.000,0.500,1490.000,1.000,941.000,5.000,1.000
"07/02/06","11:11:57","AMMA06",68581.000,"cc",28282.094,6.00,2828.210,1,6,0.100,36787.000,0.200,24960.000,0.300,4389.000,0.500,1472.000,1.000,971.000,5.000,2.000
"07/02/06","11:12:03","AMMA06",68925.000,"cc",28356.717,6.00,2835.672,1,6,0.100,37089.000,0.200,24929.000,0.300,4367.000,0.500,1535.000,1.000,1003.000,5.000,2.000
"07/02/06","11:12:09","AMMA06",67949.000,"cc",28336.949,6.00,2833.695,1,6,0.100,36480.000,0.200,24594.000,0.300,4330.000,0.500,1532.000,1.000,1011.000,5.000,2.000
"07/02/06","11:12:15","AMMA06",68791.000,"cc",28308.535,6.00,2830.854,1,6,0.100,37016.000,0.200,24852.000,0.300,4381.000,0.500,1525.000,1.000,1013.000,5.000,4.000
"07/02/06","11:12:21","AMMA06",68223.000,"cc",28254.244,6.00,2825.425,1,6,0.100,36825.000,0.200,24521.000,0.300,4323.000,0.500,1512.000,1.000,1042.000,5.000,0
"07/02/06","11:12:27","AMMA06",68094.000,"cc",28335.273,6.00,2833.528,1,6,0.100,36887.000,0.200,24379.000,0.300,4365.000,0.500,1446.000,1.000,1017.000,5.000,0
"07/02/06","11:12:33","AMMA06",68170.000,"cc",28266.324,6.00,2826.633,1,6,0.100,37034.000,0.200,24321.000,0.300,4405.000,0.500,1462.000,1.000,948.000,5.000,0
"07/02/06","11:12:39","AMMA06",68693.000,"cc",28371.065,6.00,2837.107,1,6,0.100,36999.000,0.200,24756.000,0.300,4375.000,0.500,1527.000,1.000,1035.000,5.000,1.000
"07/02/06","11:12:45","AMMA06",68769.000,"cc",28296.699,6.00,2829.670,1,6,0.100,37196.000,0.200,24704.000,0.300,4328.000,0.500,1596.000,1.000,945.000,5.000,0
"07/02/06","11:12:51","AMMA06",68356.000,"cc",28335.992,6.00,2833.599,1,6,0.100,37071.000,0.200,24538.000,0.300,4179.000,0.500,1514.000,1.000,1053.000,5.000,1.000
"07/02/06","11:12:57","AMMA06",68104.000,"cc",28359.285,6.00,2835.929,1,6,0.100,36768.000,0.200,24465.000,0.300,4306.000,0.500,1547.000,1.000,1018.000,5.000,0
"07/02/06","11:13:03","AMMA06",68454.000,"cc",28311.852,6.00,2831.185,1,6,0.100,37076.000,0.200,24523.000,0.300,4325.000,0.500,1509.000,1.000,1021.000,5.000,0
"07/02/06","11:13:09","AMMA06",68199.000,"cc",28287.738,6.00,2828.774,1,6,0.100,36976.000,0.200,24382.000,0.300,4265.000,0.500,1564.000,1.000,1011.000,5.000,1.000
"07/02/06","11:13:15","AMMA06",68285.000,"cc",28283.779,6.00,2828.378,1,6,0.100,36957.000,0.200,24445.000,0.300,4326.000,0.500,1558.000,1.000,998.000,5.000,1.000
"07/02/06","11:13:21","AMMA06",68873.000,"cc",28304.824,6.00,2830.483,1,6,0.100,37273.000,0.200,24690.000,0.300,4407.000,0.500,1522.000,1.000,981.000,5.000,0
"07/02/06","11:13:27","AMMA06",68132.000,"cc",28335.318,6.00,2833.532,1,6,0.100,36685.000,0.200,24611.000,0.300,4310.000,0.500,1544.000,1.000,982.000,5.000,0
"07/02/06","11:13:33","AMMA06",68212.000,"cc",28295.264,6.00,2829.527,1,6,0.100,36978.000,0.200,24321.000,0.300,4368.000,0.500,1521.000,1.000,1024.000,5.000,0
"07/02/06","11:13:39","AMMA06",68356.000,"cc",28320.457,6.00,2832.046,1,6,0.100,36817.000,0.200,24548.000,0.300,4385.000,0.500,1619.000,1.000,985.000,5.000,2.000
"07/02/06","11:13:45","AMMA06",68924.000,"cc",28328.805,6.00,2832.881,1,6,0.100,37002.000,0.200,24947.000,0.300,4441.000,0.500,1501.000,1.000,1032.000,5.000,1.000
"07/02/06","11:13:51","AMMA06",68566.000,"cc",28369.908,6.00,2836.991,1,6,0.100,36800.000,0.200,24796.000,0.300,4400.000,0.500,1576.000,1.000,994.000,5.000,0
"07/02/06","11:13:57","AMMA06",67824.000,"cc",28299.373,6.00,2829.938,1,6,0.100,36361.000,0.200,24682.000,0.300,4237.000,0.500,1495.000,1.000,1047.000,5.000,2.000